Location: Calimesa Mobile Home Ranch
(33.9736°N, 117.0370°W)
Time: 13:43:46
(UTC+00:00)

Tiangong - Visible Passes

Search period start: 22 July 2024 00:00
Search period end: 01 August 2024 00:00
Orbit: 377 x 383 km, 41.5° (Epoch: 22 July)

Date Brightness Start Highest point End Pass type
(mag) Time Alt. Az. Time Alt. Az. Time Alt. Az.
22 Jul -0.8 10:47:54 36° N 10:48:22 39° NNE 10:51:21 10° E visible
22 Jul -1.4 12:22:18 10° W 12:25:11 33° SSW 12:28:04 10° SSE visible
23 Jul -2.1 11:28:06 29° W 11:29:32 62° SSW 11:32:46 10° SE visible
24 Jul -0.2 04:05:20 10° SSW 04:06:43 17° S 04:06:43 17° S visible
24 Jul 0.4 10:42:02 17° ESE 10:42:02 17° ESE 10:42:55 10° ESE visible
24 Jul -0.1 12:15:09 10° WSW 12:16:53 14° SW 12:18:44 10° S visible
25 Jul 0.0 03:19:31 10° S 03:21:28 14° SE 03:23:25 10° ESE visible
25 Jul -1.0 04:55:32 10° WSW 04:57:56 41° WSW 04:57:56 41° WSW visible
25 Jul 0.5 11:34:26 11° S 11:34:26 11° S 11:34:39 10° SSE visible
26 Jul -2.0 04:13:27 10° SW 04:17:00 73° SSE 04:19:28 19° ENE visible
26 Jul 1.1 05:52:12 10° WNW 05:53:00 15° WNW 05:53:00 15° WNW visible
27 Jul -1.7 03:35:05 10° SW 03:38:39 59° SSE 03:42:14 10° ENE visible
27 Jul -0.2 05:13:54 10° W 05:17:15 34° NNW 05:17:40 33° N visible
28 Jul -0.3 04:38:54 10° W 04:42:21 37° NNW 04:45:01 15° NE visible
28 Jul 1.5 06:18:33 10° NW 06:18:55 12° NW 06:18:55 12° NW visible
29 Jul -0.3 04:06:54 10° W 04:10:27 39° NNW 04:14:01 10° NE visible
29 Jul 0.7 05:46:45 10° WNW 05:48:58 22° NNW 05:48:58 22° NNW visible
30 Jul -0.4 03:37:39 10° W 03:41:17 41° NNW 03:44:54 10° NE visible
30 Jul 0.3 05:17:42 10° WNW 05:20:55 25° N 05:21:26 24° NNE visible
31 Jul -0.3 03:10:57 10° W 03:14:38 41° NNW 03:18:19 10° NE visible
31 Jul 0.4 04:51:11 10° WNW 04:54:27 26° N 04:56:08 19° NE visible
